sat.trackr.live / text

‹ back to catalog

ONEWEB-0232

NORAD 48781 · 2021-045Q

PAYLOAD ACTIVE UNKNOWN

§ Identity

Operator
Country
UK
Launch date
2021-05-28
Launch site
VOSTO
Launch vehicle
Mass (kg)
RCS (m²)

Purposes: comms

External: N2YO · Heavens-Above · Gunter

§ Orbital elements

Epoch: 2026-05-25T00:35:00.277728Z

Period
109.46 min
Inclination
87.9006°
Eccentricity
0.0001828
Mean motion
13.15549424 rev/d
Perigee alt
1,200.4 km
Apogee alt
1,203.2 km
Semi-major
7,579.9 km
B*
2.3288e-4
RAAN
263.7971°
Arg perigee
101.9117°
Mean anomaly
258.2218°
Rev number
24,160

§ Raw data

ONEWEB-02321 48781U 21045Q   26145.02430877  .00000100  00000+0  23288-3 0  99952 48781  87.9006 263.7971 0001828 101.9117 258.2218 13.15549424241603

JSON: /api/v1/satellites/48781 · /tle

For live sub-satellite position, see the globe view (requires WebGL).

§ Visibility from observer

Set your observer location to see the next 7 days of passes ≥ 10°. The values pass through the URL so the page stays shareable.

No JS? Fill the form by hand. The geolocation button needs JavaScript.